Powrót do katalogu

NIMBUS 2 DEB

AktywnyLEO
NORAD 37891·DEBRIS·🇺🇸 United States

Wystrzelony May 15, 1966 z Vandenberg Space Force Base

Loading…

Następne Przeloty (najbliższe 24 godziny)

TLE

ŚwieżeSource: Space-Track

Epoka: Sep 12, 2026, 21:26 UTC

1 37891U 66040AW  26255.89358056  .00001269  00000-0  20364-2 0  9993
2 37891 100.5392 233.2593 0067081  40.3972 320.2114 13.50217329745747

Śledź NIMBUS 2 DEB w czasie rzeczywistym z AllMySat

Download on the App Store